This is the latest recevied weather packets stored in our database for station/object G4KVI. If no packets are shown the sender has not sent any weather packets the latest 10 day(s).
| Time | Temp. | Humidity | Pressure | Rain* | Wind** | Luminosity | Snow |
|---|---|---|---|---|---|---|---|
| 1787772603 | 21.67° C | 61% | 1012.6 hPa | 0 mm | - | 0 W/m² | - |
| 1787772303 | 21.67° C | 61% | 1012.6 hPa | 0 mm | - | 0 W/m² | - |
| 1787772003 | 21.67° C | 60% | 1012.7 hPa | 0 mm | - | 0 W/m² | - |
| 1787771703 | 21.67° C | 60% | 1012.9 hPa | 0 mm | - | 1 W/m² | - |
| 1787771403 | 21.67° C | 59% | 1012.5 hPa | 0 mm | - | 3 W/m² | - |
| 1787771103 | 22.22° C | 59% | 1012.6 hPa | 0 mm | - | 4 W/m² | - |
| 1787770803 | 22.22° C | 58% | 1012.6 hPa | 0 mm | - | 6 W/m² | - |
| 1787770504 | 22.22° C | 58% | 1012.7 hPa | 0 mm | - | 8 W/m² | - |
| 1787770204 | 22.22° C | 57% | 1012.4 hPa | 0 mm | - | 12 W/m² | - |
| 1787769904 | 22.22° C | 57% | 1012.7 hPa | 0 mm | - | 17 W/m² | - |
| 1787769604 | 22.22° C | 57% | 1012.7 hPa | 0 mm | - | 21 W/m² | - |
| 1787769304 | 22.78° C | 58% | 1012.7 hPa | 0 mm | - | 25 W/m² | - |
| 1787769004 | 22.78° C | 57% | 1012.6 hPa | 0 mm | - | 31 W/m² | - |
| 1787768704 | 22.78° C | 57% | 1012.7 hPa | 0 mm | - | 35 W/m² | - |
| 1787768404 | 22.78° C | 57% | 1012.6 hPa | 0 mm | - | 40 W/m² | - |
| 1787768104 | 22.78° C | 57% | 1012.6 hPa | 0 mm | - | 42 W/m² | - |
| 1787767804 | 23.33° C | 57% | 1012.7 hPa | 0 mm | - | 43 W/m² | - |
| 1787767504 | 23.33° C | 56% | 1012.4 hPa | 0 mm | - | 44 W/m² | - |
| 1787767204 | 23.33° C | 56% | 1012.5 hPa | 0 mm | - | 46 W/m² | - |
| 1787766904 | 23.33° C | 55% | 1012.5 hPa | 0 mm | - | 50 W/m² | - |
| 1787766604 | 23.33° C | 54% | 1012.6 hPa | 0 mm | - | 53 W/m² | - |
| 1787766304 | 23.89° C | 53% | 1012.6 hPa | 0 mm | - | 57 W/m² | - |
| 1787766004 | 23.89° C | 53% | 1012.5 hPa | 0 mm | - | 58 W/m² | - |
| 1787765704 | 23.89° C | 52% | 1012.3 hPa | 0 mm | - | 59 W/m² | - |
| 1787765404 | 23.89° C | 52% | 1012.5 hPa | 0 mm | - | 62 W/m² | - |
* Rain latest hour (hover to see other rain measurements)
** Current wind speed in m/s (hover to see current wind gust speed)